Weather History for Fort Lauderdale, FL

Change the Weather History Date:

Wednesday, August 21, 2013

  Actual Average Record
Temperature  
Mean Temperature 86 °F -  
Max Temperature 91 °F 92 °F 96 °F (1950)
Min Temperature 82 °F 75 °F 69 °F (1950)
Cooling Degree Days 21    
Growing Degree Days 36 (Base 50)    
Moisture  
Dew Point 75 °F    
Average Humidity 73    
Maximum Humidity 82    
Minimum Humidity 61    
Precipitation  
Precipitation 0.05 in - - ()
Sea Level Pressure  
Sea Level Pressure 30.05 in    
Wind  
Wind Speed 12 mph (East)    
Max Wind Speed 21 mph    
Max Gust Speed 30 mph    
Visibility 10 miles    
Events Rain , Thunderstorm    
Averages and records for this station are not official NWS values.
T = Trace of Precipitation, MM = Missing Value Source: NWS Daily Summary

Daily Weather History Graph

Daily Weather History Graph

Search for Another Location

Airport:

Trip Planner

Search our weather history database for the weather conditions in past years. The results will help you decide how hot, cold, wet, or windy it might be!

Date:

Astronomy

Aug. 21, 2013 Rise Set
Actual Time 6:56 AM EDT 7:51 PM EDT
Civil Twilight 6:32 AM EDT 8:14 PM EDT
Nautical Twilight 6:03 AM EDT 8:43 PM EDT
Astronomical Twilight 5:35 AM EDT 9:11 PM EDT
Moon 8:11 PM EDT (8/21) 7:25 AM EDT (8/21)
Length of Visible Light 13h 42m
Length of Day
12h 55m
Full, 100% of the Moon is Illuminated
Aug 21
Full
Aug 28
Last Quarter
Sep 5
New
Sep 12
First Quarter
Sep 19
Full

Hourly Weather History & Observations

Time (EDT) Temp. Heat Index Dew Point Humidity Pressure Visibility Wind Dir Wind Speed Gust Speed Precip Events Conditions
12:53 AM 84.0 °F 91.9 °F 75.0 °F 74% 30.06 in 10.0 mi East 11.5 mph - N/A   Partly Cloudy
1:53 AM 82.9 °F 90.8 °F 75.9 °F 79% 30.04 in 10.0 mi East 8.1 mph - N/A   Partly Cloudy
2:53 AM 82.9 °F 90.8 °F 75.9 °F 79% 30.04 in 10.0 mi ENE 8.1 mph - N/A   Partly Cloudy
3:53 AM 82.9 °F 89.4 °F 73.9 °F 74% 30.02 in 10.0 mi East 11.5 mph - 0.00 in   Clear
4:53 AM 84.0 °F 91.9 °F 75.0 °F 74% 30.03 in 10.0 mi East 13.8 mph 20.7 mph N/A   Partly Cloudy
5:53 AM 82.0 °F 89.4 °F 75.9 °F 82% 30.04 in 10.0 mi ENE 6.9 mph - N/A   Clear
6:42 AM 82.4 °F 88.2 °F 73.4 °F 74% 30.05 in 10.0 mi East 9.2 mph - N/A Thunderstorm Thunderstorm
6:53 AM 82.9 °F 89.4 °F 73.9 °F 74% 30.04 in 10.0 mi East 12.7 mph - N/A Thunderstorm Thunderstorm
7:02 AM 82.4 °F 88.2 °F 73.4 °F 74% 30.03 in 10.0 mi East 9.2 mph - N/A   Mostly Cloudy
7:53 AM 84.0 °F 91.2 °F 73.9 °F 72% 30.05 in 10.0 mi East 11.5 mph - N/A   Mostly Cloudy
8:06 AM 84.2 °F 92.3 °F 75.2 °F 74% 30.05 in 10.0 mi East 13.8 mph - N/A Thunderstorm Thunderstorm
8:53 AM 82.9 °F 90.2 °F 75.0 °F 77% 30.07 in 10.0 mi East 15.0 mph 24.2 mph N/A   Mostly Cloudy
9:53 AM 84.9 °F 93.3 °F 75.0 °F 72% 30.08 in 10.0 mi East 10.4 mph - N/A   Mostly Cloudy
10:53 AM 86.0 °F 95.1 °F 75.0 °F 70% 30.09 in 10.0 mi East 15.0 mph - N/A   Scattered Clouds
11:49 AM 87.8 °F 97.6 °F 75.2 °F 66% 30.07 in 10.0 mi East 17.3 mph - N/A   Scattered Clouds
11:53 AM 88.0 °F 98.5 °F 75.9 °F 67% 30.08 in 10.0 mi East 17.3 mph - N/A   Scattered Clouds
12:53 PM 89.1 °F 100.2 °F 75.9 °F 65% 30.08 in 10.0 mi East 20.7 mph 29.9 mph N/A   Scattered Clouds
1:53 PM 90.0 °F 100.2 °F 75.0 °F 61% 30.06 in 10.0 mi East 17.3 mph - N/A   Scattered Clouds
2:53 PM 90.0 °F 101.3 °F 75.9 °F 63% 30.04 in 10.0 mi East 17.3 mph 25.3 mph N/A   Scattered Clouds
3:53 PM 90.0 °F 102.5 °F 77.0 °F 65% 30.03 in 10.0 mi East 18.4 mph - N/A   Mostly Cloudy
4:35 PM 86.0 °F 95.1 °F 75.2 °F 70% 30.01 in 10.0 mi East 17.3 mph - 0.00 in   Mostly Cloudy
4:53 PM 87.1 °F 97.3 °F 75.9 °F 69% 30.01 in 10.0 mi East 16.1 mph - 0.00 in   Mostly Cloudy
5:53 PM 82.9 °F 91.8 °F 77.0 °F 82% 30.02 in 10.0 mi East 10.4 mph - 0.05 in   Partly Cloudy
6:53 PM 84.0 °F 92.6 °F 75.9 °F 76% 30.01 in 10.0 mi East 15.0 mph - 0.00 in Rain Light Rain
7:53 PM 84.0 °F 92.6 °F 75.9 °F 76% 30.02 in 10.0 mi East 10.4 mph - 0.00 in   Scattered Clouds
8:53 PM 82.0 °F 88.6 °F 75.0 °F 79% 30.05 in 10.0 mi East 11.5 mph - 0.00 in Rain Light Rain
9:53 PM 84.0 °F 92.6 °F 75.9 °F 76% 30.06 in 10.0 mi East 9.2 mph - 0.00 in   Scattered Clouds
10:53 PM 84.0 °F 93.7 °F 77.0 °F 79% 30.06 in 10.0 mi East 12.7 mph - N/A   Scattered Clouds
11:53 PM 82.9 °F 90.8 °F 75.9 °F 79% 30.08 in 10.0 mi ESE 10.4 mph - 0.00 in   Scattered Clouds